Terminal Aerodrome Forecast
Issued by NWS Sterling, VA

Current Version | Previous Version | Text Only | Print | Product List | Glossary Off
Versions: 1 2 3 4 5 6 7 8 9 10 11 12 13 14 15 16 17 18 19 20 21 22 23

000
FTUS41 KLWX 170900 AAA
TAFDCA
TAF AMD
KDCA 170900Z 1709/1806 19005KT P6SM BKN080 BKN150
     FM171500 31009KT P6SM SCT040 BKN120
     FM180200 VRB03KT P6SM FEW040 SCT140=

USA.gov is the U.S. government's official web portal to all federal, state and local government web resources and services.